EW0220 Weather Reports


time (UTC)temp
F
wind
direction
speed
knots
gust
knots
rain 1hr
in
rain 24hr
in
rain mn
in
humidity
%
barometer
mb
20260906161533 91 27 2.6 7.0 0.00 0.00 0.00 66 1012.2
20260906160031 91 329 2.6 7.0 0.00 0.00 0.00 67 1012.3
20260906154528 90 345 2.6 7.0 0.00 0.00 0.00 68 1012.3
20260906153024 89 346 0.9 5.2 0.00 0.00 0.00 71 1012.2
20260906151523 89 341 3.5 6.1 0.00 0.00 0.00 71 1012.0
20260906150026 88 324 0.9 4.3 0.00 0.00 0.00 70 1012.1
20260906144520 88 327 1.7 5.2 0.00 0.00 0.00 73 1012.1
20260906143018 88 322 0.0 1.7 0.00 0.00 0.00 72 1012.1
20260906141514 86 285 0.9 3.5 0.00 0.00 0.00 75 1012.2
20260906140018 85 297 0.0 2.6 0.00 0.00 0.00 79 1012.2
20260906134510 84 338 0.0 2.6 0.00 0.00 0.00 81 1012.2
20260906133009 84 252 0.0 0.9 0.00 0.00 0.00 78 1012.1
20260906131505 81 227 0.0 1.7 0.00 0.00 0.00 82 1012.1
20260906130002 80 223 0.0 1.7 0.00 0.00 0.00 85 1012.1
20260906124606 80 290 0.0 0.0 0.00 0.00 0.00 89 1012.1
20260906123056 78 291 0.0 0.0 0.00 0.00 0.00 90 1012.1
20260906121602 76 290 0.0 0.0 0.00 0.00 0.00 93 1012.1
20260906120053 75 291 0.0 0.0 0.00 0.00 0.00 94 1011.8
20260906114603 74 291 0.0 0.0 0.00 0.00 0.00 94 1011.6
20260906113049 74 288 0.0 0.9 0.00 0.00 0.00 94 1011.3
20260906111600 74 255 0.0 0.0 0.00 0.00 0.00 92 1011.2
20260906110044 74 259 0.0 0.0 0.00 0.00 0.00 93 1011.0
20260906104543 75 261 0.0 0.9 0.00 0.00 0.00 92 1010.9
20260906103042 75 141 0.0 0.0 0.00 0.00 0.00 93 1010.8
20260906101542 75 141 0.0 4.3 0.00 0.00 0.00 94 1010.8
20260906100043 74 98 1.7 1.7 0.00 0.00 0.00 93 1010.5
20260906094540 75 257 0.0 0.0 0.00 0.00 0.00 93 1010.3
20260906093049 75 257 0.0 1.7 0.00 0.00 0.00 94 1010.2
20260906091540 75 246 0.0 0.0 0.00 0.00 0.00 95 1010.2
20260906090039 75 222 0.0 0.9 0.00 0.00 0.00 95 1010.3
20260906084537 75 296 0.0 0.9 0.00 0.00 0.00 95 1010.3
20260906083036 75 81 0.0 0.9 0.00 0.00 0.00 95 1010.0
20260906081548 75 81 0.0 0.0 0.00 0.00 0.00 95 1010.0
20260906080034 75 81 0.9 1.7 0.00 0.00 0.00 94 1010.1
20260906074534 75 349 0.0 0.0 0.00 0.00 0.00 95 1010.1
20260906073047 75 349 0.0 0.0 0.00 0.00 0.00 95 1010.1
20260906071531 75 348 0.0 0.0 0.00 0.00 0.00 95 1010.1
20260906070038 75 349 0.0 0.0 0.00 0.00 0.00 95 1010.1
20260906064528 75 348 0.0 0.0 0.00 0.00 0.00 94 1010.1
20260906063027 76 348 0.0 0.0 0.00 0.00 0.00 94 1010.4
20260906061526 76 349 0.0 0.0 0.00 0.00 0.00 94 1010.4
20260906060023 76 348 0.0 0.0 0.00 0.00 0.00 93 1010.5
20260906054524 77 348 0.0 0.0 0.00 0.00 0.00 93 1010.7
20260906053028 77 349 0.0 1.7 0.00 0.00 0.00 93 1010.6
20260906051522 77 25 0.0 0.0 0.00 0.00 0.00 92 1010.6
20260906050016 77 25 0.0 0.0 0.00 0.00 0.00 92 1010.5
20260906044515 77 25 0.0 0.0 0.00 0.00 0.00 92 1010.5
20260906043018 77 25 0.0 0.0 0.00 0.00 0.00 91 1010.5
20260906041515 78 328 0.0 0.0 0.00 0.00 0.00 91 1010.5
20260906040014 78 328 0.0 0.0 0.00 0.00 0.00 90 1010.6
20260906034520 79 328 0.0 0.0 0.00 0.00 0.00 89 1010.5
20260906033013 79 327 0.0 0.0 0.00 0.00 0.00 88 1010.4
20260906031512 79 327 0.0 0.0 0.00 0.00 0.00 88 1010.3
20260906030012 79 327 0.0 0.0 0.00 0.00 0.00 88 1010.2
20260906024511 80 327 0.0 0.0 0.00 0.00 0.00 87 1010.1
20260906023011 80 327 0.0 0.0 0.00 0.00 0.00 87 1010.1
20260906021510 81 354 0.0 0.0 0.00 0.00 0.00 85 1010.0
20260906020010 81 354 0.0 1.7 0.00 0.00 0.00 85 1009.8
20260906014509 82 6 0.0 0.0 0.00 0.00 0.00 83 1009.7
20260906013009 83 7 0.0 0.0 0.00 0.00 0.00 83 1009.5
20260906011508 84 7 0.0 0.0 0.00 0.00 0.00 77 1009.4
20260906010009 86 7 0.0 0.0 0.00 0.00 0.00 74 1009.2
20260906004507 87 6 0.0 0.0 0.00 0.00 0.00 73 1009.1
20260906003007 88 6 0.0 0.0 0.00 0.00 0.00 66 1009.1
20260906001505 90 6 0.0 0.0 0.00 0.00 0.00 66 1009.2
20260906000005 91 6 0.0 1.7 0.00 0.00 0.00 64 1009.4
20260905234504 95 150 0.0 0.0 0.00 0.00 0.00 56 1009.3
20260905233006 96 150 0.0 0.9 0.00 0.00 0.00 51 1009.3
20260905231511 96 92 0.0 0.9 0.00 0.00 0.00 53 1009.2
20260905230003 97 67 0.9 2.6 0.00 0.00 0.00 51 1009.2
20260905224502 99 94 0.0 0.9 0.00 0.00 0.00 50 1009.3